| time (UTC) | temp F | wind direction | speed MPH | gust MPH | rain 1hr in | rain 24hr in | rain mn in | humidity % | barometer mb |
| 20260831133050 | 0 | 254 | 0.0 | 0.0 | 0.00 | 0.03 | 0.00 | 1024.6 | |
| 20260831131550 | 0 | 274 | 0.0 | 0.0 | 0.00 | 0.03 | 0.00 | 1024.5 | |
| 20260831130046 | 0 | 44 | 0.0 | 0.0 | 0.00 | 0.03 | 0.00 | 1024.5 | |
| 20260831124536 | 0 | 10 | 0.0 | 0.0 | 0.00 | 0.03 | 0.00 | 1024.6 | |
| 20260831123043 | 0 | 36 | 0.0 | 0.0 | 0.00 | 0.03 | 0.00 | 1024.7 | |
| 20260831121534 | 0 | 44 | 0.0 | 0.0 | 0.00 | 0.03 | 0.00 | 1024.7 | |
| 20260831120040 | 0 | 44 | 0.0 | 0.0 | 0.00 | 0.03 | 0.00 | 1024.5 | |
| 20260831114521 | 0 | 44 | 0.0 | 0.0 | 0.00 | 0.03 | 0.00 | 1024.4 | |
| 20260831113014 | 0 | 44 | 0.0 | 0.0 | 0.00 | 0.03 | 0.00 | 1024.2 | |
| 20260831111510 | 0 | 44 | 0.0 | 0.0 | 0.00 | 0.03 | 0.00 | 1024.1 | |
| 20260831110005 | 0 | 24 | 0.0 | 0.0 | 0.00 | 0.03 | 0.00 | 1024.1 | |
| 20260831104503 | 0 | 65 | 0.0 | 0.0 | 0.00 | 0.03 | 0.00 | 1023.8 | |
| 20260831103057 | 0 | 65 | 0.0 | 0.0 | 0.00 | 0.03 | 0.00 | 1023.8 | |
| 20260831101601 | 0 | 65 | 0.0 | 0.0 | 0.00 | 0.03 | 0.00 | 1023.6 | |
| 20260831100051 | 0 | 65 | 0.0 | 0.0 | 0.00 | 0.03 | 0.00 | 1023.4 | |
| 20260831094555 | 0 | 65 | 0.0 | 0.0 | 0.00 | 0.03 | 0.00 | 1023.6 | |
| 20260831093039 | 0 | 65 | 0.0 | 0.0 | 0.00 | 0.03 | 0.00 | 1023.7 | |
| 20260831091534 | 0 | 65 | 0.0 | 0.0 | 0.00 | 0.03 | 0.00 | 1023.2 | |
| 20260831090030 | 0 | 67 | 0.0 | 0.0 | 0.00 | 0.03 | 0.00 | 1023.3 | |
| 20260831084528 | 0 | 67 | 0.0 | 0.0 | 0.00 | 0.03 | 0.00 | 1023.2 | |
| 20260831083024 | 0 | 67 | 0.0 | 0.0 | 0.00 | 0.03 | 0.00 | 1023.0 | |
| 20260831081532 | 0 | 67 | 0.0 | 0.0 | 0.00 | 0.03 | 0.00 | 1023.0 | |
| 20260831080012 | 0 | 67 | 0.0 | 0.0 | 0.00 | 0.03 | 0.00 | 1023.1 | |
| 20260831074507 | 0 | 69 | 0.0 | 0.0 | 0.00 | 0.03 | 0.00 | 1023.0 | |
| 20260831073004 | 0 | 309 | 0.0 | 0.0 | 0.00 | 0.03 | 0.00 | 1023.2 | |
| 20260831071606 | 0 | 309 | 0.0 | 0.0 | 0.00 | 0.03 | 0.00 | 1023.3 | |
| 20260831070115 | 0 | 309 | 0.0 | 0.0 | 0.00 | 0.03 | 0.00 | 1023.3 | |
| 20260831064551 | 0 | 51 | 0.0 | 0.0 | 0.00 | 0.03 | 0.00 | 1023.2 | |
| 20260831063046 | 0 | 51 | 0.0 | 0.0 | 0.00 | 0.03 | 0.00 | 1023.1 | |
| 20260831061542 | 0 | 51 | 0.0 | 0.0 | 0.00 | 0.03 | 0.00 | 1023.1 | |
| 20260831060047 | 0 | 51 | 0.0 | 0.0 | 0.00 | 0.03 | 0.00 | 1023.1 | |
| 20260831054533 | 0 | 51 | 0.0 | 0.0 | 0.00 | 0.03 | 0.00 | 1023.1 | |
| 20260831053028 | 0 | 51 | 0.0 | 0.0 | 0.00 | 0.03 | 0.00 | 1023.1 | |
| 20260831051534 | 0 | 51 | 0.0 | 0.0 | 0.00 | 0.03 | 0.00 | 1023.0 | |
| 20260831050020 | 0 | 51 | 0.0 | 0.0 | 0.00 | 0.03 | 0.00 | 1023.1 | |
| 20260831044515 | 0 | 51 | 0.0 | 0.0 | 0.00 | 0.03 | 0.00 | 1023.1 | |
| 20260831043010 | 0 | 51 | 0.0 | 0.0 | 0.00 | 0.03 | 0.00 | 1023.0 | |
| 20260831041506 | 0 | 51 | 0.0 | 0.0 | 0.00 | 0.03 | 0.00 | 1022.9 | |
| 20260831040004 | 0 | 51 | 0.0 | 0.0 | 0.00 | 0.03 | 0.00 | 1022.8 | |
| 20260831034557 | 0 | 51 | 0.0 | 0.0 | 0.00 | 0.03 | 0.03 | 1022.9 | |
| 20260831033101 | 0 | 51 | 0.0 | 0.0 | 0.00 | 0.03 | 0.03 | 1022.8 | |
| 20260831031549 | 0 | 51 | 0.0 | 0.0 | 0.01 | 0.03 | 0.03 | 1023.0 | |
| 20260831030044 | 0 | 51 | 0.0 | 0.0 | 0.01 | 0.03 | 0.03 | 1023.3 | |
| 20260831024540 | 0 | 51 | 0.0 | 0.0 | 0.01 | 0.03 | 0.03 | 1023.2 | |
| 20260831023041 | 0 | 51 | 0.0 | 0.0 | 0.01 | 0.03 | 0.03 | 1023.2 | |
| 20260831021548 | 0 | 51 | 0.0 | 0.0 | 0.01 | 0.02 | 0.02 | 1023.2 | |
| 20260831020026 | 0 | 51 | 0.0 | 0.0 | 0.01 | 0.02 | 0.02 | 1023.4 | |
| 20260831014523 | 0 | 51 | 0.0 | 0.0 | 0.01 | 0.02 | 0.02 | 1023.3 | |
| 20260831013018 | 0 | 51 | 0.0 | 0.0 | 0.02 | 0.02 | 0.02 | 1023.3 | |
| 20260831011514 | 0 | 51 | 0.0 | 0.0 | 0.01 | 0.01 | 0.01 | 1023.2 | |
| 20260831010022 | 0 | 51 | 0.0 | 0.0 | 0.01 | 0.01 | 0.01 | 1023.0 | |
| 20260831004505 | 0 | 51 | 0.0 | 0.0 | 0.01 | 0.01 | 0.01 | 1022.9 | |
| 20260831003101 | 0 | 51 | 0.0 | 0.0 | 0.00 | 0.00 | 0.00 | 1022.8 | |
| 20260831001606 | 0 | 51 | 0.0 | 0.0 | 0.00 | 0.00 | 0.00 | 1022.5 | |
| 20260831000052 | 0 | 51 | 0.0 | 0.0 | 0.00 | 0.00 | 0.00 | 1022.4 | |
| 20260830234548 | 0 | 51 | 0.0 | 0.0 | 0.00 | 0.00 | 0.00 | 1022.2 | |
| 20260830233048 | 0 | 51 | 0.0 | 0.0 | 0.00 | 0.00 | 0.00 | 1022.0 | |
| 20260830231548 | 0 | 51 | 0.0 | 0.0 | 0.00 | 0.00 | 0.00 | 1021.9 | |
| 20260830230052 | 0 | 51 | 0.0 | 0.0 | 0.00 | 0.00 | 0.00 | 1021.9 | |
| 20260830224555 | 0 | 51 | 0.0 | 0.0 | 0.00 | 0.00 | 0.00 | 1021.9 | |
| 20260830223045 | 0 | 51 | 0.0 | 0.0 | 0.00 | 0.00 | 0.00 | 1021.9 | |
| 20260830221545 | 0 | 51 | 0.0 | 0.0 | 0.00 | 0.00 | 0.00 | 1022.0 | |
| 20260830220049 | 0 | 51 | 0.0 | 0.0 | 0.00 | 0.00 | 0.00 | 1022.2 | |
| 20260830214541 | 0 | 51 | 0.0 | 0.0 | 0.00 | 0.00 | 0.00 | 1022.2 | |
| 20260830213034 | 0 | 202 | 0.0 | 0.0 | 0.00 | 0.00 | 0.00 | 1021.9 | |
| 20260830211530 | 0 | 202 | 0.0 | 0.0 | 0.00 | 0.00 | 0.00 | 1022.0 | |
| 20260830210025 | 0 | 202 | 0.0 | 0.0 | 0.00 | 0.00 | 0.00 | 1022.0 | |
| 20260830204521 | 0 | 202 | 0.0 | 0.0 | 0.00 | 0.00 | 0.00 | 1022.1 | |
| 20260830203017 | 0 | 200 | 0.0 | 0.0 | 0.00 | 0.00 | 0.00 | 1022.3 | |
| 20260830201513 | 0 | 197 | 0.0 | 0.0 | 0.00 | 0.00 | 0.00 | 1022.5 | |
| 20260830200007 | 0 | 196 | 0.0 | 0.0 | 0.00 | 0.00 | 0.00 | 1022.8 | |
| 20260830194503 | 0 | 196 | 0.0 | 0.0 | 0.00 | 0.00 | 0.00 | 1022.8 | |
| 20260830193059 | 0 | 180 | 0.0 | 0.0 | 0.00 | 0.00 | 0.00 | 1023.0 | |
| 20260830191558 | 0 | 156 | 0.0 | 0.0 | 0.00 | 0.00 | 0.00 | 1023.1 | |
| 20260830190050 | 0 | 189 | 0.0 | 0.0 | 0.00 | 0.00 | 0.00 | 1023.3 | |
| 20260830184546 | 0 | 230 | 0.0 | 0.0 | 0.00 | 0.00 | 0.00 | 1023.6 | |
| 20260830183041 | 0 | 230 | 0.0 | 0.0 | 0.00 | 0.00 | 0.00 | 1023.8 | |
| 20260830181545 | 0 | 230 | 0.0 | 0.0 | 0.00 | 0.00 | 0.00 | 1023.9 | |
| 20260830180050 | 0 | 230 | 0.0 | 0.0 | 0.00 | 0.00 | 0.00 | 1024.1 | |
| 20260830174530 | 0 | 230 | 0.0 | 0.0 | 0.00 | 0.00 | 0.00 | 1024.2 | |
| 20260830173049 | 0 | 230 | 0.0 | 0.0 | 0.00 | 0.00 | 0.00 | 1024.2 | |
| 20260830171520 | 0 | 230 | 0.0 | 0.0 | 0.00 | 0.00 | 0.00 | 1024.5 | |
| 20260830170018 | 0 | 242 | 0.0 | 0.0 | 0.00 | 0.00 | 0.00 | 1024.5 | |
| 20260830164511 | 0 | 257 | 0.0 | 0.0 | 0.00 | 0.00 | 0.00 | 1024.5 | |
| 20260830163007 | 0 | 227 | 0.0 | 0.0 | 0.00 | 0.00 | 0.00 | 1024.6 | |
| 20260830161501 | 0 | 227 | 0.0 | 0.0 | 0.00 | 0.00 | 0.00 | 1024.9 | |
| 20260830160057 | 0 | 229 | 0.0 | 0.0 | 0.00 | 0.00 | 0.00 | 1025.1 | |
| 20260830154553 | 0 | 229 | 0.0 | 0.0 | 0.00 | 0.00 | 0.00 | 1025.3 | |
| 20260830153049 | 0 | 238 | 0.0 | 0.0 | 0.00 | 0.00 | 0.00 | 1025.3 | |
| 20260830151544 | 0 | 225 | 0.0 | 0.0 | 0.00 | 0.00 | 0.00 | 1025.5 | |
| 20260830150040 | 0 | 242 | 0.0 | 0.0 | 0.00 | 0.00 | 0.00 | 1025.8 | |
| 20260830144537 | 0 | 242 | 0.0 | 0.0 | 0.00 | 0.00 | 0.00 | 1026.0 | |
| 20260830143031 | 0 | 242 | 0.0 | 0.0 | 0.00 | 0.00 | 0.00 | 1025.9 | |
| 20260830141526 | 0 | 242 | 0.0 | 0.0 | 0.00 | 0.00 | 0.00 | 1025.9 | |
| 20260830140022 | 0 | 317 | 0.0 | 0.0 | 0.00 | 0.00 | 0.00 | 1025.9 | |
| 20260830134535 | 0 | 323 | 0.0 | 0.0 | 0.00 | 0.00 | 0.00 | 1026.1 |